AIC2504 VAAH-VANM

Flight info

Callsign AIC2504
Flight time 0h 49m
Altitude 29000
Route QQZ1A QQZ W77 SG/N0415F280 W134 MIDOK
Aircraft A320/M-SDE3FGHIRWY/LB1

Departure

Time 2026-05-05 10:41
Airport Sardar Vallabh Patel International Airport (VAAH)

Arrival

Time 2026-05-05 11:31
Airport Navi Mumbai International Airport (VANM)
Time Latitude Longitude Altitude Speed Heading
2026-05-05 10:13 23.07366 72.62459 199 ft 0 kts 302°
2026-05-05 10:24 23.07364 72.62464 202 ft 1 kts 301°
2026-05-05 10:24 23.07359 72.62473 205 ft 1 kts 301°
2026-05-05 10:24 23.07353 72.62483 204 ft 1 kts 301°
2026-05-05 10:24 23.07348 72.62492 202 ft 1 kts 301°
2026-05-05 10:25 23.07343 72.62501 197 ft 1 kts 301°
2026-05-05 10:25 23.07338 72.62511 195 ft 1 kts 277°
2026-05-05 10:25 23.07337 72.62522 196 ft 1 kts 251°
2026-05-05 10:25 23.07341 72.62532 188 ft 1 kts 226°
2026-05-05 10:26 23.07342 72.62533 188 ft 0 kts 223°
2026-05-05 10:27 23.07314 72.62505 193 ft 8 kts 223°
2026-05-05 10:28 23.07263 72.62495 190 ft 8 kts 147°
2026-05-05 10:28 23.07225 72.62531 193 ft 7 kts 136°
2026-05-05 10:28 23.07190 72.62568 188 ft 8 kts 134°
2026-05-05 10:28 23.07198 72.62640 192 ft 13 kts 48°
2026-05-05 10:29 23.07267 72.62711 196 ft 13 kts 44°
2026-05-05 10:29 23.07328 72.62775 194 ft 11 kts 43°
2026-05-05 10:29 23.07380 72.62829 192 ft 10 kts 44°
2026-05-05 10:29 23.07423 72.62876 198 ft 8 kts 46°
2026-05-05 10:30 23.07458 72.62914 200 ft 6 kts 45°
2026-05-05 10:30 23.07487 72.62945 194 ft 5 kts 44°
2026-05-05 10:30 23.07510 72.62969 198 ft 4 kts 44°
2026-05-05 10:30 23.07528 72.62988 194 ft 4 kts 44°
2026-05-05 10:31 23.07566 72.63028 202 ft 8 kts 45°
2026-05-05 10:31 23.07601 72.63066 192 ft 6 kts 44°
2026-05-05 10:31 23.07630 72.63097 196 ft 6 kts 44°
2026-05-05 10:31 23.07662 72.63142 195 ft 7 kts 68°
2026-05-05 10:32 23.07675 72.63191 189 ft 6 kts 74°
2026-05-05 10:32 23.07685 72.63230 195 ft 5 kts 74°
2026-05-05 10:32 23.07690 72.63247 189 ft 0 kts 74°
2026-05-05 10:35 23.07708 72.63317 202 ft 17 kts 74°
2026-05-05 10:35 23.07736 72.63430 194 ft 14 kts 75°
2026-05-05 10:36 23.07786 72.63516 192 ft 13 kts 46°
2026-05-05 10:36 23.07868 72.63603 193 ft 20 kts 44°
2026-05-05 10:36 23.07942 72.63682 195 ft 24 kts 44°
2026-05-05 10:36 23.08105 72.63857 192 ft 26 kts 45°
2026-05-05 10:37 23.08233 72.63994 197 ft 26 kts 44°
2026-05-05 10:37 23.08323 72.64087 203 ft 27 kts 43°
2026-05-05 10:37 23.08505 72.64277 201 ft 28 kts 43°
2026-05-05 10:37 23.08651 72.64427 198 ft 30 kts 45°
2026-05-05 10:38 23.08746 72.64535 201 ft 26 kts 48°
2026-05-05 10:38 23.08789 72.64610 200 ft 8 kts 63°
2026-05-05 10:38 23.08827 72.64635 198 ft 3 kts 306°
2026-05-05 10:38 23.08823 72.64624 197 ft 3 kts 253°
2026-05-05 10:39 23.08802 72.64595 192 ft 0 kts 226°
2026-05-05 10:40 23.08798 72.64591 202 ft 10 kts 226°
2026-05-05 10:40 23.08549 72.64331 194 ft 85 kts 224°
2026-05-05 10:40 23.07978 72.63723 200 ft 143 kts 224°
2026-05-05 10:41 23.07194 72.62858 396 ft 167 kts 223°
2026-05-05 10:41 23.06379 72.61977 1081 ft 164 kts 217°
2026-05-05 10:41 23.05408 72.61370 1796 ft 161 kts 205°
2026-05-05 10:41 23.04231 72.61032 1944 ft 189 kts 189°
2026-05-05 10:42 23.01414 72.61681 2574 ft 232 kts 150°
2026-05-05 10:42 23.00179 72.62922 2920 ft 256 kts 129°
2026-05-05 10:42 22.99046 72.64508 3010 ft 271 kts 134°
2026-05-05 10:43 22.97707 72.65950 3019 ft 270 kts 141°
2026-05-05 10:43 22.96279 72.67273 2956 ft 270 kts 143°
2026-05-05 10:43 22.94861 72.68611 3023 ft 271 kts 140°
2026-05-05 10:43 22.93500 72.70030 3018 ft 272 kts 138°
2026-05-05 10:44 22.92146 72.71472 2984 ft 274 kts 137°
2026-05-05 10:44 22.90798 72.72932 2962 ft 272 kts 136°
2026-05-05 10:44 22.89470 72.74388 2982 ft 272 kts 137°
2026-05-05 10:44 22.88137 72.75842 3040 ft 272 kts 136°
2026-05-05 10:45 22.86773 72.77286 3120 ft 276 kts 141°
2026-05-05 10:45 22.85300 72.78601 3998 ft 274 kts 145°
2026-05-05 10:45 22.83772 72.79853 4824 ft 277 kts 145°
2026-05-05 10:45 22.82208 72.81093 5614 ft 280 kts 146°
2026-05-05 10:46 22.80620 72.82343 6287 ft 288 kts 145°
2026-05-05 10:46 22.79009 72.83687 6927 ft 295 kts 143°
2026-05-05 10:46 22.77393 72.85085 7624 ft 299 kts 143°
2026-05-05 10:46 22.75762 72.86490 8396 ft 301 kts 144°
2026-05-05 10:47 22.74112 72.87891 9198 ft 301 kts 144°
2026-05-05 10:47 22.72474 72.89262 9970 ft 302 kts 145°
2026-05-05 10:47 22.70751 72.90712 10150 ft 327 kts 144°
2026-05-05 10:47 22.68914 72.92294 10345 ft 348 kts 143°
2026-05-05 10:48 22.67020 72.93927 11051 ft 349 kts 143°
2026-05-05 10:48 22.65081 72.95590 11764 ft 352 kts 143°
2026-05-05 10:48 22.63156 72.97237 12452 ft 355 kts 143°
2026-05-05 10:48 22.61226 72.98880 13092 ft 359 kts 143°
2026-05-05 10:49 22.59246 73.00558 13706 ft 364 kts 143°
2026-05-05 10:49 22.57243 73.02256 14285 ft 367 kts 143°
2026-05-05 10:49 22.55223 73.03970 14869 ft 371 kts 143°
2026-05-05 10:49 22.53162 73.05721 15494 ft 373 kts 143°
2026-05-05 10:50 22.51140 73.07439 16079 ft 376 kts 143°
2026-05-05 10:50 22.49049 73.09216 16659 ft 379 kts 143°
2026-05-05 10:50 22.46995 73.10964 17220 ft 383 kts 143°
2026-05-05 10:50 22.44860 73.12777 17796 ft 387 kts 143°
2026-05-05 10:51 22.42764 73.14556 18327 ft 390 kts 143°
2026-05-05 10:51 22.40622 73.16371 18799 ft 393 kts 143°
2026-05-05 10:51 22.38455 73.18201 19262 ft 397 kts 143°
2026-05-05 10:51 22.36238 73.20075 19721 ft 402 kts 143°
2026-05-05 10:52 22.33964 73.21784 20160 ft 405 kts 152°
2026-05-05 10:52 22.31406 73.23057 20596 ft 407 kts 163°
2026-05-05 10:52 22.28671 73.23886 21037 ft 410 kts 167°
2026-05-05 10:52 22.25898 73.24658 21482 ft 414 kts 167°
2026-05-05 10:53 22.23095 73.25444 21922 ft 418 kts 167°
2026-05-05 10:53 22.20274 73.26238 22343 ft 422 kts 167°
2026-05-05 10:53 22.17412 73.27045 22776 ft 426 kts 167°
2026-05-05 10:53 22.14532 73.27859 23191 ft 430 kts 167°
2026-05-05 10:54 22.11623 73.28681 23565 ft 434 kts 167°
2026-05-05 10:54 22.08688 73.29509 23930 ft 437 kts 168°
2026-05-05 10:54 22.05737 73.30340 24293 ft 439 kts 168°
2026-05-05 10:54 22.02775 73.31172 24669 ft 441 kts 168°
2026-05-05 10:55 21.99797 73.32008 25027 ft 444 kts 168°
2026-05-05 10:55 21.96800 73.32848 25376 ft 446 kts 168°
2026-05-05 10:55 21.93791 73.33692 25714 ft 448 kts 168°
2026-05-05 10:55 21.90765 73.34541 26032 ft 450 kts 168°
2026-05-05 10:56 21.87721 73.35392 26363 ft 452 kts 168°
2026-05-05 10:56 21.84673 73.36244 26693 ft 454 kts 168°
2026-05-05 10:56 21.81608 73.37102 27004 ft 456 kts 168°
2026-05-05 10:56 21.78531 73.37965 27315 ft 458 kts 168°
2026-05-05 10:57 21.75435 73.38831 27610 ft 460 kts 168°
2026-05-05 10:57 21.72324 73.39699 27898 ft 462 kts 168°
2026-05-05 10:57 21.69209 73.40568 28193 ft 464 kts 168°
2026-05-05 10:57 21.66073 73.41445 28474 ft 466 kts 168°
2026-05-05 10:58 21.62923 73.42325 28729 ft 468 kts 168°
2026-05-05 10:58 21.56725 73.44065 28831 ft 445 kts 168°
2026-05-05 10:59 21.50850 73.45714 28830 ft 432 kts 169°
2026-05-05 10:59 21.45040 73.47331 28833 ft 431 kts 169°
2026-05-05 11:00 21.39242 73.48936 28831 ft 430 kts 169°
2026-05-05 11:00 21.33441 73.50543 28841 ft 431 kts 169°
2026-05-05 11:01 21.27636 73.52155 28847 ft 431 kts 169°
2026-05-05 11:01 21.21834 73.53764 28849 ft 430 kts 169°
2026-05-05 11:02 21.16034 73.55340 28840 ft 428 kts 173°
2026-05-05 11:02 21.10170 73.55579 28836 ft 420 kts 187°
2026-05-05 11:03 21.04369 73.55222 28823 ft 420 kts 187°
2026-05-05 11:03 20.98535 73.54880 28828 ft 420 kts 187°
2026-05-05 11:04 20.92697 73.54533 28841 ft 420 kts 187°
2026-05-05 11:04 20.86873 73.54192 28843 ft 419 kts 187°
2026-05-05 11:05 20.81066 73.53846 28862 ft 418 kts 187°
2026-05-05 11:05 20.75256 73.53501 28859 ft 418 kts 187°
2026-05-05 11:06 20.69444 73.53154 28868 ft 418 kts 187°
2026-05-05 11:06 20.63642 73.52803 28858 ft 418 kts 187°
2026-05-05 11:07 20.57840 73.52460 28876 ft 418 kts 187°
2026-05-05 11:07 20.52032 73.52123 28875 ft 417 kts 187°
2026-05-05 11:08 20.46236 73.51787 28884 ft 417 kts 187°
2026-05-05 11:08 20.40441 73.51443 28883 ft 417 kts 187°
2026-05-05 11:08 20.37546 73.51270 28661 ft 416 kts 187°
2026-05-05 11:09 20.34666 73.51102 28395 ft 414 kts 187°
2026-05-05 11:09 20.31789 73.50936 28144 ft 412 kts 187°
2026-05-05 11:09 20.28927 73.50768 27895 ft 411 kts 187°
2026-05-05 11:09 20.26077 73.50598 27648 ft 410 kts 187°
2026-05-05 11:10 20.23237 73.50427 27406 ft 409 kts 187°
2026-05-05 11:10 20.20404 73.50258 27167 ft 408 kts 186°
2026-05-05 11:10 20.17571 73.50090 26927 ft 405 kts 187°
2026-05-05 11:10 20.14769 73.49924 26512 ft 402 kts 186°
2026-05-05 11:11 20.11979 73.49760 26067 ft 401 kts 186°
2026-05-05 11:11 20.09200 73.49596 25593 ft 400 kts 186°
2026-05-05 11:11 20.06422 73.49431 25130 ft 399 kts 186°
2026-05-05 11:11 20.03648 73.49269 24639 ft 399 kts 186°
2026-05-05 11:12 20.00875 73.49107 24149 ft 399 kts 186°
2026-05-05 11:12 19.98103 73.48941 23650 ft 400 kts 186°
2026-05-05 11:12 19.95314 73.48776 23065 ft 401 kts 186°
2026-05-05 11:12 19.92530 73.48615 22569 ft 399 kts 186°
2026-05-05 11:13 19.89764 73.48454 22066 ft 398 kts 186°
2026-05-05 11:13 19.87006 73.48292 21566 ft 396 kts 185°
2026-05-05 11:13 19.84255 73.48130 21078 ft 395 kts 185°
2026-05-05 11:13 19.81515 73.47971 20580 ft 394 kts 185°
2026-05-05 11:14 19.78789 73.47811 20106 ft 392 kts 185°
2026-05-05 11:14 19.76074 73.47652 19726 ft 388 kts 185°
2026-05-05 11:14 19.73400 73.47497 19380 ft 383 kts 185°
2026-05-05 11:14 19.70747 73.47340 18955 ft 381 kts 186°
2026-05-05 11:15 19.68105 73.47247 18540 ft 379 kts 181°
2026-05-05 11:15 19.65459 73.47357 18087 ft 379 kts 180°
2026-05-05 11:15 19.62844 73.47477 17718 ft 373 kts 178°
2026-05-05 11:15 19.60263 73.47600 17308 ft 369 kts 178°
2026-05-05 11:16 19.57703 73.47723 16858 ft 368 kts 179°
2026-05-05 11:16 19.55158 73.47842 16465 ft 364 kts 179°
2026-05-05 11:16 19.52642 73.47961 16091 ft 360 kts 179°
2026-05-05 11:16 19.50170 73.48079 15465 ft 353 kts 179°
2026-05-05 11:17 19.47736 73.48196 14789 ft 347 kts 179°
2026-05-05 11:17 19.45346 73.48310 14192 ft 339 kts 179°
2026-05-05 11:17 19.43030 73.48419 13779 ft 327 kts 178°
2026-05-05 11:17 19.40800 73.48521 13369 ft 314 kts 178°
2026-05-05 11:18 19.38657 73.48618 12989 ft 302 kts 178°
2026-05-05 11:18 19.36606 73.48713 12621 ft 290 kts 178°
2026-05-05 11:18 19.34627 73.48802 12269 ft 279 kts 178°
2026-05-05 11:18 19.32703 73.48889 11922 ft 276 kts 178°
2026-05-05 11:19 19.30799 73.48976 11573 ft 273 kts 178°
2026-05-05 11:19 19.28892 73.49065 11216 ft 274 kts 178°
2026-05-05 11:19 19.26987 73.49151 10863 ft 271 kts 178°
2026-05-05 11:19 19.25127 73.49235 10519 ft 265 kts 178°
2026-05-05 11:20 19.23296 73.49319 10184 ft 261 kts 178°
2026-05-05 11:20 19.22110 73.49374 9952 ft 256 kts 178°
2026-05-05 11:20 19.20323 73.49457 9592 ft 253 kts 178°
2026-05-05 11:20 19.18583 73.49539 9232 ft 255 kts 178°
2026-05-05 11:21 19.16800 73.49623 8879 ft 257 kts 178°
2026-05-05 11:21 19.15012 73.49708 8517 ft 257 kts 178°
2026-05-05 11:21 19.13224 73.49790 8162 ft 258 kts 179°
2026-05-05 11:21 19.11429 73.49868 7833 ft 258 kts 179°
2026-05-05 11:22 19.09625 73.49949 7415 ft 261 kts 179°
2026-05-05 11:22 19.07811 73.50022 7023 ft 261 kts 182°
2026-05-05 11:22 19.06057 73.49642 6630 ft 258 kts 206°
2026-05-05 11:22 19.04602 73.48564 6234 ft 255 kts 229°
2026-05-05 11:23 19.03677 73.46979 5813 ft 254 kts 252°
2026-05-05 11:23 19.03299 73.45170 5485 ft 250 kts 262°
2026-05-05 11:23 19.03094 73.43371 5294 ft 241 kts 264°
2026-05-05 11:23 19.02894 73.41666 5224 ft 227 kts 263°
2026-05-05 11:24 19.02692 73.40041 5148 ft 221 kts 263°
2026-05-05 11:24 19.02495 73.38467 5059 ft 210 kts 263°
2026-05-05 11:24 19.02307 73.36974 4948 ft 199 kts 263°
2026-05-05 11:24 19.02127 73.35539 4873 ft 198 kts 262°
2026-05-05 11:25 19.01946 73.34098 4704 ft 197 kts 262°
2026-05-05 11:25 19.01767 73.32672 4473 ft 194 kts 263°
2026-05-05 11:25 19.01590 73.31263 4230 ft 194 kts 262°
2026-05-05 11:25 19.01412 73.29853 4000 ft 193 kts 262°
2026-05-05 11:26 19.01233 73.28435 3747 ft 198 kts 263°
2026-05-05 11:26 19.01050 73.26975 3479 ft 201 kts 262°
2026-05-05 11:26 19.00865 73.25512 3242 ft 200 kts 261°
2026-05-05 11:26 19.00683 73.24066 2946 ft 194 kts 263°
2026-05-05 11:27 19.00505 73.22657 2718 ft 192 kts 263°
2026-05-05 11:27 19.00330 73.21271 2504 ft 188 kts 263°
2026-05-05 11:27 19.00159 73.19919 2237 ft 182 kts 263°
2026-05-05 11:27 19.00000 73.18663 2009 ft 164 kts 263°
2026-05-05 11:28 18.99856 73.17529 1814 ft 150 kts 263°
2026-05-05 11:28 18.99721 73.16462 1629 ft 141 kts 263°
2026-05-05 11:28 18.99593 73.15446 1465 ft 137 kts 263°
2026-05-05 11:28 18.99467 73.14443 1369 ft 140 kts 263°
2026-05-05 11:29 18.99334 73.13411 1119 ft 138 kts 263°
2026-05-05 11:29 18.99206 73.12404 882 ft 137 kts 264°
2026-05-05 11:29 18.99077 73.11409 788 ft 140 kts 262°
2026-05-05 11:29 18.98951 73.10392 554 ft 140 kts 263°
2026-05-05 11:30 18.98830 73.09402 395 ft 136 kts 264°
2026-05-05 11:30 18.98710 73.08415 222 ft 137 kts 264°
2026-05-05 11:30 18.98570 73.07406 44 ft 132 kts 262°
2026-05-05 11:30 18.98474 73.06634 40 ft 67 kts 262°
2026-05-05 11:31 18.98444 73.06390 41 ft 22 kts 264°
2026-05-05 11:31 18.98425 73.06217 37 ft 25 kts 262°
2026-05-05 11:31 18.98396 73.06019 40 ft 29 kts 262°
2026-05-05 11:31 18.98368 73.05805 40 ft 31 kts 263°
2026-05-05 11:32 18.98341 73.05571 39 ft 32 kts 263°
2026-05-05 11:32 18.98309 73.05342 38 ft 33 kts 261°